Lake Cypress Springs Weather Center

Moon Phase Calendar



Lake Cypress Springs Water Level
Online Cameras

 


      

Current Conditions in Mount Vernon
1/24/2021 10:37:12 AM

54°F
Feels Like 52
Clouds
Humidity
94%
Pressure
30.06"
Wind
4.6 mph (SE)
Dew Point
52°F
UV Index
2/10 (Low)
Visibility
5 mi

Hourly Forecast

Date & Time Sun, Jan 24
10:00 AM
Sun, Jan 24
11:00 AM
Sun, Jan 24
12:00 PM
Sun, Jan 24
1:00 PM
Sun, Jan 24
2:00 PM
Sun, Jan 24
3:00 PM
Sun, Jan 24
4:00 PM
Sun, Jan 24
5:00 PM
Sun, Jan 24
6:00 PM
Sun, Jan 24
7:00 PM
Sun, Jan 24
8:00 PM
Sun, Jan 24
9:00 PM
Sun, Jan 24
10:00 PM
Sun, Jan 24
11:00 PM
Mon, Jan 25
12:00 AM
Mon, Jan 25
1:00 AM
Mon, Jan 25
2:00 AM
Mon, Jan 25
3:00 AM
Mon, Jan 25
4:00 AM
Mon, Jan 25
5:00 AM
Mon, Jan 25
6:00 AM
Mon, Jan 25
7:00 AM
Mon, Jan 25
8:00 AM
Mon, Jan 25
9:00 AM
Mon, Jan 25
10:00 AM
Mon, Jan 25
11:00 AM
Mon, Jan 25
12:00 PM
Mon, Jan 25
1:00 PM
Mon, Jan 25
2:00 PM
Mon, Jan 25
3:00 PM
Mon, Jan 25
4:00 PM
Mon, Jan 25
5:00 PM
Mon, Jan 25
6:00 PM
Mon, Jan 25
7:00 PM
Mon, Jan 25
8:00 PM
Mon, Jan 25
9:00 PM
Mon, Jan 25
10:00 PM
Mon, Jan 25
11:00 PM
Tue, Jan 26
12:00 AM
Tue, Jan 26
1:00 AM
Tue, Jan 26
2:00 AM
Tue, Jan 26
3:00 AM
Tue, Jan 26
4:00 AM
Tue, Jan 26
5:00 AM
Tue, Jan 26
6:00 AM
Tue, Jan 26
7:00 AM
Tue, Jan 26
8:00 AM
Tue, Jan 26
9:00 AM
Condition
Clouds

Clouds

Clouds

Clouds

Clouds

Clouds

Rain

Rain

Rain

Rain

Rain

Rain

Rain

Rain

Clouds

Clouds

Rain

Rain

Rain

Rain

Rain

Rain

Rain

Clouds

Clouds

Clouds

Clouds

Clear

Clear

Clear

Clear

Clear

Clear

Clear

Clear

Clear

Clear

Clear

Clear

Clear

Clear

Clear

Clear

Clear

Clear

Clear

Clear

Clear
Temperature 54°F57°F62°F65°F66°F64°F62°F62°F61°F61°F63°F64°F65°F65°F65°F65°F65°F66°F66°F68°F68°F66°F62°F61°F62°F62°F65°F65°F65°F65°F64°F61°F57°F56°F55°F54°F53°F52°F51°F51°F49°F48°F47°F46°F44°F43°F44°F48°F
Feels Like 52°F56°F61°F65°F65°F64°F61°F61°F61°F60°F61°F62°F63°F61°F61°F62°F64°F64°F63°F63°F62°F61°F56°F54°F53°F54°F54°F55°F54°F54°F56°F55°F51°F49°F47°F46°F46°F45°F44°F43°F42°F42°F41°F40°F39°F39°F40°F43°F
Cloudiness 90%94%96%98%96%97%98%99%98%100%99%100%96%96%97%100%100%100%100%100%100%30%19%30%38%46%40%0%0%0%0%0%0%0%0%0%0%0%0%0%0%0%0%0%0%0%0%0%
Visibility 6 mi6 mi6 mi6 mi6 mi6 mi6 mi5 mi6 mi5 mi1 mi6 mi6 mi6 mi6 mi6 mi6 mi6 mi5 mi4 mi6 mi6 mi6 mi6 mi6 mi6 mi6 mi6 mi6 mi6 mi6 mi6 mi6 mi6 mi6 mi6 mi6 mi6 mi6 mi6 mi6 mi6 mi6 mi6 mi6 mi6 mi6 mi6 mi
Precipitation 0%0%0%0%0%6%37%82%97%100%100%99%99%99%76%3%41%92%96%100%100%79%76%62%54%54%50%0%0%0%0%0%0%0%0%0%0%0%0%0%0%0%0%0%0%0%0%0%
Humidity 94%90%84%79%80%87%94%95%97%97%97%96%92%92%91%93%94%94%93%91%85%83%67%62%54%53%46%43%41%43%48%55%58%58%59%60%61%61%62%62%64%65%64%67%72%78%80%75%
Dew Point 52°F54°F57°F59°F60°F60°F60°F60°F60°F61°F62°F63°F63°F62°F63°F63°F64°F64°F64°F65°F64°F61°F51°F48°F46°F45°F44°F42°F42°F42°F44°F45°F43°F41°F41°F41°F40°F40°F39°F38°F38°F37°F36°F36°F36°F37°F39°F40°F
Pressure 30.06"30.03"30"29.94"29.88"29.85"29.85"29.83"29.83"29.83"29.83"29.8"29.77"29.77"29.74"29.71"29.68"29.65"29.65"29.62"29.62"29.65"29.65"29.68"29.68"29.71"29.71"29.68"29.65"29.65"29.68"29.68"29.71"29.74"29.74"29.77"29.77"29.77"29.8"29.8"29.83"29.83"29.83"29.85"29.88"29.88"29.94"29.94"
Wind Speed 4.5 mph4.2 mph5 mph6.4 mph7.6 mph7.1 mph7.1 mph7.1 mph7 mph9 mph9 mph11.6 mph13 mph13.4 mph14.5 mph13.6 mph10.5 mph11.8 mph15.5 mph17.3 mph19.4 mph15.6 mph11.7 mph11.7 mph13.9 mph13.3 mph15.5 mph15.6 mph15.9 mph15.3 mph11.8 mph9.5 mph8.8 mph9.2 mph9.3 mph9.6 mph9.2 mph8.8 mph8.2 mph8.1 mph6.8 mph6.4 mph6 mph4.9 mph4.4 mph3.6 mph3.7 mph5.1 mph
Wind
Direction
130°
SE
145°
SE
131°
SE
124°
SE
146°
SE
131°
SE
120°
ESE
102°
ESE
111°
ESE
111°
ESE
141°
SE
161°
SSE
169°
S
169°
S
171°
S
169°
S
193°
SSW
194°
SSW
192°
SSW
198°
SSW
219°
SW
239°
WSW
253°
WSW
248°
WSW
250°
WSW
251°
WSW
252°
WSW
247°
WSW
246°
WSW
240°
WSW
236°
SW
226°
SW
222°
SW
222°
SW
226°
SW
227°
SW
229°
SW
229°
SW
233°
SW
232°
SW
231°
SW
248°
WSW
274°
W
311°
NW
336°
NNW
347°
NNW
344°
NNW
352°
N

Daily Forecast

Date High Low Precip. Humidity
Today
Jan 24

Rain
66 °F
49 °F
100%
84%
Monday
Jan 25

Rain
68 °F
52 °F
100%
46%
Tuesday
Jan 26

Clear
62 °F
44 °F
0%
56%
Wednesday
Jan 27

Rain
57 °F
42 °F
42%
62%
Thursday
Jan 28

Clouds
49 °F
33 °F
0%
59%
Friday
Jan 29

Clouds
56 °F
34 °F
0%
59%
Saturday
Jan 30

Rain
61 °F
46 °F
80%
79%
Sunday
Jan 31

Rain
60 °F
47 °F
77%
56%
Monday
Feb 1

Clear
61 °F
40 °F
0%
58%
Tuesday
Feb 2

Clouds
63 °F
46 °F
0%
63%
Wednesday
Feb 3

Clouds
68 °F
61 °F
17%
81%
Thursday
Feb 4

Rain
64 °F
50 °F
100%
92%
Friday
Feb 5

Rain
68 °F
49 °F
100%
76%
Saturday
Feb 6

Clouds
48 °F
40 °F
0%
76%
Sunday
Feb 7

Clouds
49 °F
34 °F
0%
61%
Monday
Feb 8

Rain
40 °F
35 °F
91%
75%


Temperature 8-14 Day Outlook



Precipitation 8-14 Day Outlook




Quick Links
Lake Cypress Springs News
Lake Cypress Springs Photos
Lake Cypress Springs Videos




About Us
Contact Us
Site Map
Search Site
Advertise With Us
   
Cypress-Springs.LakesOnline.com
THE LAKE CYPRESS SPRINGS WEBSITE

Copyright 2021, Lakes Online
Privacy    |    Legal